Index of /20260430/WXO-DD/model_gdps/15km/00/222
Name Last modified Size Description
Parent Directory -
20260430T00Z_MSC_GDPS_AbsoluteVorticity_IsbL-0200_LatLon0.15_PT222H.grib2 2026-04-30 04:43 1.2M
20260430T00Z_MSC_GDPS_AbsoluteVorticity_IsbL-0250_LatLon0.15_PT222H.grib2 2026-04-30 04:43 1.3M
20260430T00Z_MSC_GDPS_AbsoluteVorticity_IsbL-0500_LatLon0.15_PT222H.grib2 2026-04-30 04:43 1.2M
20260430T00Z_MSC_GDPS_AbsoluteVorticity_IsbL-0700_LatLon0.15_PT222H.grib2 2026-04-30 04:43 1.3M
20260430T00Z_MSC_GDPS_AbsoluteVorticity_IsbL-0850_LatLon0.15_PT222H.grib2 2026-04-30 04:43 1.6M
20260430T00Z_MSC_GDPS_AirTemp-Max_AGL-2m_LatLon0.15_PT222H.grib2 2026-04-30 04:43 748K
20260430T00Z_MSC_GDPS_AirTemp-Min_AGL-2m_LatLon0.15_PT222H.grib2 2026-04-30 04:43 793K
20260430T00Z_MSC_GDPS_AirTemp_AGL-120m_LatLon0.15_PT222H.grib2 2026-04-30 04:43 906K
20260430T00Z_MSC_GDPS_AirTemp_AGL-2m_LatLon0.15_PT222H.grib2 2026-04-30 04:43 1.0M
20260430T00Z_MSC_GDPS_AirTemp_AGL-40m_LatLon0.15_PT222H.grib2 2026-04-30 04:43 810K
20260430T00Z_MSC_GDPS_AirTemp_AGL-80m_LatLon0.15_PT222H.grib2 2026-04-30 04:43 916K
20260430T00Z_MSC_GDPS_AirTemp_IsbL-0001_LatLon0.15_PT222H.grib2 2026-04-30 04:43 659K
20260430T00Z_MSC_GDPS_AirTemp_IsbL-0005_LatLon0.15_PT222H.grib2 2026-04-30 04:43 685K
20260430T00Z_MSC_GDPS_AirTemp_IsbL-0010_LatLon0.15_PT222H.grib2 2026-04-30 04:43 688K
20260430T00Z_MSC_GDPS_AirTemp_IsbL-0020_LatLon0.15_PT222H.grib2 2026-04-30 04:43 775K
20260430T00Z_MSC_GDPS_AirTemp_IsbL-0030_LatLon0.15_PT222H.grib2 2026-04-30 04:43 823K
20260430T00Z_MSC_GDPS_AirTemp_IsbL-0050_LatLon0.15_PT222H.grib2 2026-04-30 04:43 871K
20260430T00Z_MSC_GDPS_AirTemp_IsbL-0100_LatLon0.15_PT222H.grib2 2026-04-30 04:43 954K
20260430T00Z_MSC_GDPS_AirTemp_IsbL-0150_LatLon0.15_PT222H.grib2 2026-04-30 04:43 1.0M
20260430T00Z_MSC_GDPS_AirTemp_IsbL-0175_LatLon0.15_PT222H.grib2 2026-04-30 04:43 946K
20260430T00Z_MSC_GDPS_AirTemp_IsbL-0200_LatLon0.15_PT222H.grib2 2026-04-30 04:43 960K
20260430T00Z_MSC_GDPS_AirTemp_IsbL-0225_LatLon0.15_PT222H.grib2 2026-04-30 04:43 961K
20260430T00Z_MSC_GDPS_AirTemp_IsbL-0250_LatLon0.15_PT222H.grib2 2026-04-30 04:43 1.0M
20260430T00Z_MSC_GDPS_AirTemp_IsbL-0275_LatLon0.15_PT222H.grib2 2026-04-30 04:43 1.0M
20260430T00Z_MSC_GDPS_AirTemp_IsbL-0300_LatLon0.15_PT222H.grib2 2026-04-30 04:43 1.0M
20260430T00Z_MSC_GDPS_AirTemp_IsbL-0350_LatLon0.15_PT222H.grib2 2026-04-30 04:43 923K
20260430T00Z_MSC_GDPS_AirTemp_IsbL-0400_LatLon0.15_PT222H.grib2 2026-04-30 04:43 940K
20260430T00Z_MSC_GDPS_AirTemp_IsbL-0450_LatLon0.15_PT222H.grib2 2026-04-30 04:43 965K
20260430T00Z_MSC_GDPS_AirTemp_IsbL-0500_LatLon0.15_PT222H.grib2 2026-04-30 04:43 1.0M
20260430T00Z_MSC_GDPS_AirTemp_IsbL-0550_LatLon0.15_PT222H.grib2 2026-04-30 04:43 795K
20260430T00Z_MSC_GDPS_AirTemp_IsbL-0600_LatLon0.15_PT222H.grib2 2026-04-30 04:43 886K
20260430T00Z_MSC_GDPS_AirTemp_IsbL-0650_LatLon0.15_PT222H.grib2 2026-04-30 04:43 912K
20260430T00Z_MSC_GDPS_AirTemp_IsbL-0700_LatLon0.15_PT222H.grib2 2026-04-30 04:43 947K
20260430T00Z_MSC_GDPS_AirTemp_IsbL-0750_LatLon0.15_PT222H.grib2 2026-04-30 04:43 1.0M
20260430T00Z_MSC_GDPS_AirTemp_IsbL-0800_LatLon0.15_PT222H.grib2 2026-04-30 04:43 1.0M
20260430T00Z_MSC_GDPS_AirTemp_IsbL-0850_LatLon0.15_PT222H.grib2 2026-04-30 04:43 1.1M
20260430T00Z_MSC_GDPS_AirTemp_IsbL-0875_LatLon0.15_PT222H.grib2 2026-04-30 04:43 1.1M
20260430T00Z_MSC_GDPS_AirTemp_IsbL-0900_LatLon0.15_PT222H.grib2 2026-04-30 04:43 1.1M
20260430T00Z_MSC_GDPS_AirTemp_IsbL-0925_LatLon0.15_PT222H.grib2 2026-04-30 04:43 1.1M
20260430T00Z_MSC_GDPS_AirTemp_IsbL-0950_LatLon0.15_PT222H.grib2 2026-04-30 04:43 1.1M
20260430T00Z_MSC_GDPS_AirTemp_IsbL-0970_LatLon0.15_PT222H.grib2 2026-04-30 04:43 1.1M
20260430T00Z_MSC_GDPS_AirTemp_IsbL-0985_LatLon0.15_PT222H.grib2 2026-04-30 04:43 1.1M
20260430T00Z_MSC_GDPS_AirTemp_IsbL-1000_LatLon0.15_PT222H.grib2 2026-04-30 04:43 1.1M
20260430T00Z_MSC_GDPS_AirTemp_IsbL-1015_LatLon0.15_PT222H.grib2 2026-04-30 04:43 1.1M
20260430T00Z_MSC_GDPS_Albedo_Sfc_LatLon0.15_PT222H.grib2 2026-04-30 04:43 243K
20260430T00Z_MSC_GDPS_CAPE_Sfc_LatLon0.15_PT222H.grib2 2026-04-30 04:43 3.8M
20260430T00Z_MSC_GDPS_CIN_Sfc_LatLon0.15_PT222H.grib2 2026-04-30 04:43 2.9M
20260430T00Z_MSC_GDPS_CloudWater_EAtm_LatLon0.15_PT222H.grib2 2026-04-30 04:43 538K
20260430T00Z_MSC_GDPS_ConvectivePrecip-Accum_Sfc_LatLon0.15_PT222H.grib2 2026-04-30 04:43 3.8M
20260430T00Z_MSC_GDPS_DewPointDepression_AGL-2m_LatLon0.15_PT222H.grib2 2026-04-30 04:43 764K
20260430T00Z_MSC_GDPS_DewPointDepression_IsbL-0010_LatLon0.15_PT222H.grib2 2026-04-30 04:43 74K
20260430T00Z_MSC_GDPS_DewPointDepression_IsbL-0020_LatLon0.15_PT222H.grib2 2026-04-30 04:43 73K
20260430T00Z_MSC_GDPS_DewPointDepression_IsbL-0030_LatLon0.15_PT222H.grib2 2026-04-30 04:43 86K
20260430T00Z_MSC_GDPS_DewPointDepression_IsbL-0050_LatLon0.15_PT222H.grib2 2026-04-30 04:43 377K
20260430T00Z_MSC_GDPS_DewPointDepression_IsbL-0100_LatLon0.15_PT222H.grib2 2026-04-30 04:43 393K
20260430T00Z_MSC_GDPS_DewPointDepression_IsbL-0150_LatLon0.15_PT222H.grib2 2026-04-30 04:43 494K
20260430T00Z_MSC_GDPS_DewPointDepression_IsbL-0175_LatLon0.15_PT222H.grib2 2026-04-30 04:43 581K
20260430T00Z_MSC_GDPS_DewPointDepression_IsbL-0200_LatLon0.15_PT222H.grib2 2026-04-30 04:43 685K
20260430T00Z_MSC_GDPS_DewPointDepression_IsbL-0225_LatLon0.15_PT222H.grib2 2026-04-30 04:43 769K
20260430T00Z_MSC_GDPS_DewPointDepression_IsbL-0250_LatLon0.15_PT222H.grib2 2026-04-30 04:43 863K
20260430T00Z_MSC_GDPS_DewPointDepression_IsbL-0275_LatLon0.15_PT222H.grib2 2026-04-30 04:43 888K
20260430T00Z_MSC_GDPS_DewPointDepression_IsbL-0300_LatLon0.15_PT222H.grib2 2026-04-30 04:43 937K
20260430T00Z_MSC_GDPS_DewPointDepression_IsbL-0350_LatLon0.15_PT222H.grib2 2026-04-30 04:43 968K
20260430T00Z_MSC_GDPS_DewPointDepression_IsbL-0400_LatLon0.15_PT222H.grib2 2026-04-30 04:43 1.0M
20260430T00Z_MSC_GDPS_DewPointDepression_IsbL-0450_LatLon0.15_PT222H.grib2 2026-04-30 04:43 1.0M
20260430T00Z_MSC_GDPS_DewPointDepression_IsbL-0500_LatLon0.15_PT222H.grib2 2026-04-30 04:43 1.0M
20260430T00Z_MSC_GDPS_DewPointDepression_IsbL-0550_LatLon0.15_PT222H.grib2 2026-04-30 04:43 1.0M
20260430T00Z_MSC_GDPS_DewPointDepression_IsbL-0600_LatLon0.15_PT222H.grib2 2026-04-30 04:43 1.1M
20260430T00Z_MSC_GDPS_DewPointDepression_IsbL-0650_LatLon0.15_PT222H.grib2 2026-04-30 04:43 1.1M
20260430T00Z_MSC_GDPS_DewPointDepression_IsbL-0700_LatLon0.15_PT222H.grib2 2026-04-30 04:43 1.1M
20260430T00Z_MSC_GDPS_DewPointDepression_IsbL-0750_LatLon0.15_PT222H.grib2 2026-04-30 04:43 1.1M
20260430T00Z_MSC_GDPS_DewPointDepression_IsbL-0800_LatLon0.15_PT222H.grib2 2026-04-30 04:43 1.2M
20260430T00Z_MSC_GDPS_DewPointDepression_IsbL-0850_LatLon0.15_PT222H.grib2 2026-04-30 04:43 1.2M
20260430T00Z_MSC_GDPS_DewPointDepression_IsbL-0875_LatLon0.15_PT222H.grib2 2026-04-30 04:43 1.1M
20260430T00Z_MSC_GDPS_DewPointDepression_IsbL-0900_LatLon0.15_PT222H.grib2 2026-04-30 04:43 1.1M
20260430T00Z_MSC_GDPS_DewPointDepression_IsbL-0925_LatLon0.15_PT222H.grib2 2026-04-30 04:43 1.0M
20260430T00Z_MSC_GDPS_DewPointDepression_IsbL-0950_LatLon0.15_PT222H.grib2 2026-04-30 04:43 1.0M
20260430T00Z_MSC_GDPS_DewPointDepression_IsbL-0970_LatLon0.15_PT222H.grib2 2026-04-30 04:43 1.0M
20260430T00Z_MSC_GDPS_DewPointDepression_IsbL-0985_LatLon0.15_PT222H.grib2 2026-04-30 04:43 1.0M
20260430T00Z_MSC_GDPS_DewPointDepression_IsbL-1000_LatLon0.15_PT222H.grib2 2026-04-30 04:43 964K
20260430T00Z_MSC_GDPS_DewPointDepression_IsbL-1015_LatLon0.15_PT222H.grib2 2026-04-30 04:43 907K
20260430T00Z_MSC_GDPS_DewPoint_AGL-2m_LatLon0.15_PT222H.grib2 2026-04-30 04:43 606K
20260430T00Z_MSC_GDPS_DownwardLongwaveRadiationFlux-Accum_Sfc_LatLon0.15_PT222H.grib2 2026-04-30 04:43 729K
20260430T00Z_MSC_GDPS_DownwardShortwaveRadiationFlux-Accum_NTAtm_LatLon0.15_PT222H.grib2 2026-04-30 04:43 256K
20260430T00Z_MSC_GDPS_DownwardShortwaveRadiationFlux-Accum_Sfc_LatLon0.15_PT222H.grib2 2026-04-30 04:43 902K
20260430T00Z_MSC_GDPS_FreezingRain-Accum12h_Sfc_LatLon0.15_PT222H.grib2 2026-04-30 04:43 75K
20260430T00Z_MSC_GDPS_FreezingRain-Accum24h_Sfc_LatLon0.15_PT222H.grib2 2026-04-30 04:43 114K
20260430T00Z_MSC_GDPS_FreezingRain-Accum6h_Sfc_LatLon0.15_PT222H.grib2 2026-04-30 04:43 55K
20260430T00Z_MSC_GDPS_FreezingRain-Accum_Sfc_LatLon0.15_PT222H.grib2 2026-04-30 04:43 404K
20260430T00Z_MSC_GDPS_GeopotentialHeight_IsbL-0001_LatLon0.15_PT222H.grib2 2026-04-30 04:43 436K
20260430T00Z_MSC_GDPS_GeopotentialHeight_IsbL-0005_LatLon0.15_PT222H.grib2 2026-04-30 04:43 473K
20260430T00Z_MSC_GDPS_GeopotentialHeight_IsbL-0010_LatLon0.15_PT222H.grib2 2026-04-30 04:43 464K
20260430T00Z_MSC_GDPS_GeopotentialHeight_IsbL-0020_LatLon0.15_PT222H.grib2 2026-04-30 04:43 404K
20260430T00Z_MSC_GDPS_GeopotentialHeight_IsbL-0030_LatLon0.15_PT222H.grib2 2026-04-30 04:43 562K
20260430T00Z_MSC_GDPS_GeopotentialHeight_IsbL-0050_LatLon0.15_PT222H.grib2 2026-04-30 04:43 567K
20260430T00Z_MSC_GDPS_GeopotentialHeight_IsbL-0100_LatLon0.15_PT222H.grib2 2026-04-30 04:43 608K
20260430T00Z_MSC_GDPS_GeopotentialHeight_IsbL-0150_LatLon0.15_PT222H.grib2 2026-04-30 04:43 629K
20260430T00Z_MSC_GDPS_GeopotentialHeight_IsbL-0175_LatLon0.15_PT222H.grib2 2026-04-30 04:43 633K
20260430T00Z_MSC_GDPS_GeopotentialHeight_IsbL-0200_LatLon0.15_PT222H.grib2 2026-04-30 04:43 638K
20260430T00Z_MSC_GDPS_GeopotentialHeight_IsbL-0225_LatLon0.15_PT222H.grib2 2026-04-30 04:43 634K
20260430T00Z_MSC_GDPS_GeopotentialHeight_IsbL-0250_LatLon0.15_PT222H.grib2 2026-04-30 04:43 640K
20260430T00Z_MSC_GDPS_GeopotentialHeight_IsbL-0275_LatLon0.15_PT222H.grib2 2026-04-30 04:43 640K
20260430T00Z_MSC_GDPS_GeopotentialHeight_IsbL-0300_LatLon0.15_PT222H.grib2 2026-04-30 04:43 632K
20260430T00Z_MSC_GDPS_GeopotentialHeight_IsbL-0350_LatLon0.15_PT222H.grib2 2026-04-30 04:43 629K
20260430T00Z_MSC_GDPS_GeopotentialHeight_IsbL-0400_LatLon0.15_PT222H.grib2 2026-04-30 04:43 619K
20260430T00Z_MSC_GDPS_GeopotentialHeight_IsbL-0450_LatLon0.15_PT222H.grib2 2026-04-30 04:43 610K
20260430T00Z_MSC_GDPS_GeopotentialHeight_IsbL-0500_LatLon0.15_PT222H.grib2 2026-04-30 04:43 529K
20260430T00Z_MSC_GDPS_GeopotentialHeight_IsbL-0550_LatLon0.15_PT222H.grib2 2026-04-30 04:43 524K
20260430T00Z_MSC_GDPS_GeopotentialHeight_IsbL-0600_LatLon0.15_PT222H.grib2 2026-04-30 04:43 687K
20260430T00Z_MSC_GDPS_GeopotentialHeight_IsbL-0650_LatLon0.15_PT222H.grib2 2026-04-30 04:43 685K
20260430T00Z_MSC_GDPS_GeopotentialHeight_IsbL-0700_LatLon0.15_PT222H.grib2 2026-04-30 04:43 688K
20260430T00Z_MSC_GDPS_GeopotentialHeight_IsbL-0750_LatLon0.15_PT222H.grib2 2026-04-30 04:43 695K
20260430T00Z_MSC_GDPS_GeopotentialHeight_IsbL-0800_LatLon0.15_PT222H.grib2 2026-04-30 04:43 706K
20260430T00Z_MSC_GDPS_GeopotentialHeight_IsbL-0850_LatLon0.15_PT222H.grib2 2026-04-30 04:43 713K
20260430T00Z_MSC_GDPS_GeopotentialHeight_IsbL-0875_LatLon0.15_PT222H.grib2 2026-04-30 04:43 722K
20260430T00Z_MSC_GDPS_GeopotentialHeight_IsbL-0900_LatLon0.15_PT222H.grib2 2026-04-30 04:43 726K
20260430T00Z_MSC_GDPS_GeopotentialHeight_IsbL-0925_LatLon0.15_PT222H.grib2 2026-04-30 04:43 732K
20260430T00Z_MSC_GDPS_GeopotentialHeight_IsbL-0950_LatLon0.15_PT222H.grib2 2026-04-30 04:43 743K
20260430T00Z_MSC_GDPS_GeopotentialHeight_IsbL-0970_LatLon0.15_PT222H.grib2 2026-04-30 04:43 753K
20260430T00Z_MSC_GDPS_GeopotentialHeight_IsbL-0985_LatLon0.15_PT222H.grib2 2026-04-30 04:43 769K
20260430T00Z_MSC_GDPS_GeopotentialHeight_IsbL-1000_LatLon0.15_PT222H.grib2 2026-04-30 04:43 788K
20260430T00Z_MSC_GDPS_GeopotentialHeight_IsbL-1015_LatLon0.15_PT222H.grib2 2026-04-30 04:43 811K
20260430T00Z_MSC_GDPS_Humidex_Sfc_LatLon0.15_PT222H.grib2 2026-04-30 04:43 5.3M
20260430T00Z_MSC_GDPS_IcePellets-Accum12h_Sfc_LatLon0.15_PT222H.grib2 2026-04-30 04:43 11K
20260430T00Z_MSC_GDPS_IcePellets-Accum24h_Sfc_LatLon0.15_PT222H.grib2 2026-04-30 04:43 17K
20260430T00Z_MSC_GDPS_IcePellets-Accum6h_Sfc_LatLon0.15_PT222H.grib2 2026-04-30 04:43 13K
20260430T00Z_MSC_GDPS_IcePellets-Accum_Sfc_LatLon0.15_PT222H.grib2 2026-04-30 04:43 138K
20260430T00Z_MSC_GDPS_KIndex_Sfc_LatLon0.15_PT222H.grib2 2026-04-30 04:43 6.5M
20260430T00Z_MSC_GDPS_LatentHeatNetFlux_Sfc_LatLon0.15_PT222H.grib2 2026-04-30 04:43 543K
20260430T00Z_MSC_GDPS_LiftedIndex-MU-VT_IsbL-0500_LatLon0.15_PT222H.grib2 2026-04-30 04:43 5.4M
20260430T00Z_MSC_GDPS_NetLongwaveRadiationFlux-Accum_Sfc_LatLon0.15_PT222H.grib2 2026-04-30 04:43 924K
20260430T00Z_MSC_GDPS_NetShortwaveRadiationFlux-Accum_Sfc_LatLon0.15_PT222H.grib2 2026-04-30 04:43 882K
20260430T00Z_MSC_GDPS_O3MixingRatio_Sfc_LatLon0.15_PT222H.grib2 2026-04-30 04:51 1.9M
20260430T00Z_MSC_GDPS_O3_EAtm_LatLon0.15_PT222H.grib2 2026-04-30 04:51 2.4M
20260430T00Z_MSC_GDPS_PlanetaryBoundaryLayerHeight_Sfc_LatLon0.15_PT222H.grib2 2026-04-30 04:43 2.5M
20260430T00Z_MSC_GDPS_Precip-Accum12h_Sfc_LatLon0.15_PT222H.grib2 2026-04-30 04:43 4.0M
20260430T00Z_MSC_GDPS_Precip-Accum24h_Sfc_LatLon0.15_PT222H.grib2 2026-04-30 04:43 4.5M
20260430T00Z_MSC_GDPS_Precip-Accum6h_Sfc_LatLon0.15_PT222H.grib2 2026-04-30 04:43 3.8M
20260430T00Z_MSC_GDPS_Precip-Accum_Sfc_LatLon0.15_PT222H.grib2 2026-04-30 04:43 5.1M
20260430T00Z_MSC_GDPS_PrecipRate_Sfc_LatLon0.15_PT222H.grib2 2026-04-30 04:43 3.1M
20260430T00Z_MSC_GDPS_PrecipType-Instant_Sfc_LatLon0.15_PT222H.grib2 2026-04-30 04:43 1.6M
20260430T00Z_MSC_GDPS_Pressure_MSL_LatLon0.15_PT222H.grib2 2026-04-30 04:43 718K
20260430T00Z_MSC_GDPS_Pressure_PVU-1.5_LatLon0.15_PT222H.grib2 2026-04-30 04:43 5.8M
20260430T00Z_MSC_GDPS_Pressure_PVU-1_LatLon0.15_PT222H.grib2 2026-04-30 04:43 6.0M
20260430T00Z_MSC_GDPS_Pressure_PVU-2_LatLon0.15_PT222H.grib2 2026-04-30 04:43 5.6M
20260430T00Z_MSC_GDPS_Pressure_Sfc_LatLon0.15_PT222H.grib2 2026-04-30 04:43 1.1M
20260430T00Z_MSC_GDPS_RadiativeTemp_Sfc_LatLon0.15_PT222H.grib2 2026-04-30 04:43 501K
20260430T00Z_MSC_GDPS_Rain-Accum12h_Sfc_LatLon0.15_PT222H.grib2 2026-04-30 04:43 2.7M
20260430T00Z_MSC_GDPS_Rain-Accum24h_Sfc_LatLon0.15_PT222H.grib2 2026-04-30 04:43 3.2M
20260430T00Z_MSC_GDPS_Rain-Accum6h_Sfc_LatLon0.15_PT222H.grib2 2026-04-30 04:43 2.5M
20260430T00Z_MSC_GDPS_Rain-Accum_Sfc_LatLon0.15_PT222H.grib2 2026-04-30 04:43 4.0M
20260430T00Z_MSC_GDPS_RelativeHumidity_AGL-2m_LatLon0.15_PT222H.grib2 2026-04-30 04:43 1.0M
20260430T00Z_MSC_GDPS_RelativeHumidity_IsbL-0010_LatLon0.15_PT222H.grib2 2026-04-30 04:43 186K
20260430T00Z_MSC_GDPS_RelativeHumidity_IsbL-0020_LatLon0.15_PT222H.grib2 2026-04-30 04:43 152K
20260430T00Z_MSC_GDPS_RelativeHumidity_IsbL-0030_LatLon0.15_PT222H.grib2 2026-04-30 04:43 178K
20260430T00Z_MSC_GDPS_RelativeHumidity_IsbL-0050_LatLon0.15_PT222H.grib2 2026-04-30 04:43 328K
20260430T00Z_MSC_GDPS_RelativeHumidity_IsbL-0100_LatLon0.15_PT222H.grib2 2026-04-30 04:43 490K
20260430T00Z_MSC_GDPS_RelativeHumidity_IsbL-0150_LatLon0.15_PT222H.grib2 2026-04-30 04:43 676K
20260430T00Z_MSC_GDPS_RelativeHumidity_IsbL-0175_LatLon0.15_PT222H.grib2 2026-04-30 04:43 797K
20260430T00Z_MSC_GDPS_RelativeHumidity_IsbL-0200_LatLon0.15_PT222H.grib2 2026-04-30 04:43 711K
20260430T00Z_MSC_GDPS_RelativeHumidity_IsbL-0225_LatLon0.15_PT222H.grib2 2026-04-30 04:43 790K
20260430T00Z_MSC_GDPS_RelativeHumidity_IsbL-0250_LatLon0.15_PT222H.grib2 2026-04-30 04:43 863K
20260430T00Z_MSC_GDPS_RelativeHumidity_IsbL-0275_LatLon0.15_PT222H.grib2 2026-04-30 04:43 888K
20260430T00Z_MSC_GDPS_RelativeHumidity_IsbL-0300_LatLon0.15_PT222H.grib2 2026-04-30 04:43 934K
20260430T00Z_MSC_GDPS_RelativeHumidity_IsbL-0350_LatLon0.15_PT222H.grib2 2026-04-30 04:43 952K
20260430T00Z_MSC_GDPS_RelativeHumidity_IsbL-0400_LatLon0.15_PT222H.grib2 2026-04-30 04:43 1.0M
20260430T00Z_MSC_GDPS_RelativeHumidity_IsbL-0450_LatLon0.15_PT222H.grib2 2026-04-30 04:43 1.0M
20260430T00Z_MSC_GDPS_RelativeHumidity_IsbL-0500_LatLon0.15_PT222H.grib2 2026-04-30 04:43 1.0M
20260430T00Z_MSC_GDPS_RelativeHumidity_IsbL-0550_LatLon0.15_PT222H.grib2 2026-04-30 04:43 1.0M
20260430T00Z_MSC_GDPS_RelativeHumidity_IsbL-0600_LatLon0.15_PT222H.grib2 2026-04-30 04:43 1.0M
20260430T00Z_MSC_GDPS_RelativeHumidity_IsbL-0650_LatLon0.15_PT222H.grib2 2026-04-30 04:43 1.1M
20260430T00Z_MSC_GDPS_RelativeHumidity_IsbL-0700_LatLon0.15_PT222H.grib2 2026-04-30 04:43 1.1M
20260430T00Z_MSC_GDPS_RelativeHumidity_IsbL-0750_LatLon0.15_PT222H.grib2 2026-04-30 04:43 1.1M
20260430T00Z_MSC_GDPS_RelativeHumidity_IsbL-0800_LatLon0.15_PT222H.grib2 2026-04-30 04:43 1.2M
20260430T00Z_MSC_GDPS_RelativeHumidity_IsbL-0850_LatLon0.15_PT222H.grib2 2026-04-30 04:43 1.3M
20260430T00Z_MSC_GDPS_RelativeHumidity_IsbL-0875_LatLon0.15_PT222H.grib2 2026-04-30 04:43 1.3M
20260430T00Z_MSC_GDPS_RelativeHumidity_IsbL-0900_LatLon0.15_PT222H.grib2 2026-04-30 04:43 1.2M
20260430T00Z_MSC_GDPS_RelativeHumidity_IsbL-0925_LatLon0.15_PT222H.grib2 2026-04-30 04:43 1.2M
20260430T00Z_MSC_GDPS_RelativeHumidity_IsbL-0950_LatLon0.15_PT222H.grib2 2026-04-30 04:43 1.2M
20260430T00Z_MSC_GDPS_RelativeHumidity_IsbL-0970_LatLon0.15_PT222H.grib2 2026-04-30 04:43 1.2M
20260430T00Z_MSC_GDPS_RelativeHumidity_IsbL-0985_LatLon0.15_PT222H.grib2 2026-04-30 04:43 1.1M
20260430T00Z_MSC_GDPS_RelativeHumidity_IsbL-1000_LatLon0.15_PT222H.grib2 2026-04-30 04:43 1.1M
20260430T00Z_MSC_GDPS_RelativeHumidity_IsbL-1015_LatLon0.15_PT222H.grib2 2026-04-30 04:43 1.0M
20260430T00Z_MSC_GDPS_RelativeVorticity_IsbL-0200_LatLon0.15_PT222H.grib2 2026-04-30 04:43 1.5M
20260430T00Z_MSC_GDPS_RelativeVorticity_IsbL-0250_LatLon0.15_PT222H.grib2 2026-04-30 04:43 1.3M
20260430T00Z_MSC_GDPS_RelativeVorticity_IsbL-0500_LatLon0.15_PT222H.grib2 2026-04-30 04:43 1.5M
20260430T00Z_MSC_GDPS_RelativeVorticity_IsbL-0700_LatLon0.15_PT222H.grib2 2026-04-30 04:43 1.3M
20260430T00Z_MSC_GDPS_RelativeVorticity_IsbL-0850_LatLon0.15_PT222H.grib2 2026-04-30 04:43 1.6M
20260430T00Z_MSC_GDPS_Runoff-Accum_Sfc_LatLon0.15_PT222H.grib2 2026-04-30 04:43 137K
20260430T00Z_MSC_GDPS_SensibleHeatNetFlux_Sfc_LatLon0.15_PT222H.grib2 2026-04-30 04:43 654K
20260430T00Z_MSC_GDPS_ShowalterIndex_IsbL-0500_LatLon0.15_PT222H.grib2 2026-04-30 04:43 6.2M
20260430T00Z_MSC_GDPS_Snow-Accum12h_Sfc_LatLon0.15_PT222H.grib2 2026-04-30 04:43 1.5M
20260430T00Z_MSC_GDPS_Snow-Accum24h_Sfc_LatLon0.15_PT222H.grib2 2026-04-30 04:43 1.5M
20260430T00Z_MSC_GDPS_Snow-Accum6h_Sfc_LatLon0.15_PT222H.grib2 2026-04-30 04:43 1.4M
20260430T00Z_MSC_GDPS_Snow-Accum_Sfc_LatLon0.15_PT222H.grib2 2026-04-30 04:43 2.1M
20260430T00Z_MSC_GDPS_SnowDensity_Sfc_LatLon0.15_PT222H.grib2 2026-04-30 04:43 256K
20260430T00Z_MSC_GDPS_SnowDepth_Sfc_LatLon0.15_PT222H.grib2 2026-04-30 04:43 1.7M
20260430T00Z_MSC_GDPS_SoilTemp_DBS-0to10cm_LatLon0.15_PT222H.grib2 2026-04-30 04:43 514K
20260430T00Z_MSC_GDPS_SoilTemp_Sfc_LatLon0.15_PT222H.grib2 2026-04-30 04:43 585K
20260430T00Z_MSC_GDPS_SoilVolumetricIceContent_Sfc_LatLon0.15_PT222H.grib2 2026-04-30 04:43 180K
20260430T00Z_MSC_GDPS_SoilVolumetricWaterContent_DBS-0to10cm_LatLon0.15_PT222H.grib2 2026-04-30 04:43 595K
20260430T00Z_MSC_GDPS_SoilVolumetricWaterContent_DBS-0to1cm_LatLon0.15_PT222H.grib2 2026-04-30 04:43 651K
20260430T00Z_MSC_GDPS_SpecificHumidity_AGL-120m_LatLon0.15_PT222H.grib2 2026-04-30 04:43 1.1M
20260430T00Z_MSC_GDPS_SpecificHumidity_AGL-2m_LatLon0.15_PT222H.grib2 2026-04-30 04:43 1.2M
20260430T00Z_MSC_GDPS_SpecificHumidity_AGL-40m_LatLon0.15_PT222H.grib2 2026-04-30 04:43 1.1M
20260430T00Z_MSC_GDPS_SpecificHumidity_AGL-80m_LatLon0.15_PT222H.grib2 2026-04-30 04:43 1.1M
20260430T00Z_MSC_GDPS_SpecificHumidity_IsbL-0001_LatLon0.15_PT222H.grib2 2026-04-30 04:43 1.1M
20260430T00Z_MSC_GDPS_SpecificHumidity_IsbL-0005_LatLon0.15_PT222H.grib2 2026-04-30 04:43 1.0M
20260430T00Z_MSC_GDPS_SpecificHumidity_IsbL-0010_LatLon0.15_PT222H.grib2 2026-04-30 04:43 1.1M
20260430T00Z_MSC_GDPS_SpecificHumidity_IsbL-0020_LatLon0.15_PT222H.grib2 2026-04-30 04:43 1.2M
20260430T00Z_MSC_GDPS_SpecificHumidity_IsbL-0030_LatLon0.15_PT222H.grib2 2026-04-30 04:43 1.4M
20260430T00Z_MSC_GDPS_SpecificHumidity_IsbL-0050_LatLon0.15_PT222H.grib2 2026-04-30 04:43 1.4M
20260430T00Z_MSC_GDPS_SpecificHumidity_IsbL-0100_LatLon0.15_PT222H.grib2 2026-04-30 04:43 1.5M
20260430T00Z_MSC_GDPS_SpecificHumidity_IsbL-0150_LatLon0.15_PT222H.grib2 2026-04-30 04:43 1.3M
20260430T00Z_MSC_GDPS_SpecificHumidity_IsbL-0175_LatLon0.15_PT222H.grib2 2026-04-30 04:43 1.3M
20260430T00Z_MSC_GDPS_SpecificHumidity_IsbL-0200_LatLon0.15_PT222H.grib2 2026-04-30 04:43 1.3M
20260430T00Z_MSC_GDPS_SpecificHumidity_IsbL-0225_LatLon0.15_PT222H.grib2 2026-04-30 04:43 1.3M
20260430T00Z_MSC_GDPS_SpecificHumidity_IsbL-0250_LatLon0.15_PT222H.grib2 2026-04-30 04:43 1.5M
20260430T00Z_MSC_GDPS_SpecificHumidity_IsbL-0275_LatLon0.15_PT222H.grib2 2026-04-30 04:43 1.3M
20260430T00Z_MSC_GDPS_SpecificHumidity_IsbL-0300_LatLon0.15_PT222H.grib2 2026-04-30 04:43 1.2M
20260430T00Z_MSC_GDPS_SpecificHumidity_IsbL-0350_LatLon0.15_PT222H.grib2 2026-04-30 04:43 1.2M
20260430T00Z_MSC_GDPS_SpecificHumidity_IsbL-0400_LatLon0.15_PT222H.grib2 2026-04-30 04:43 1.5M
20260430T00Z_MSC_GDPS_SpecificHumidity_IsbL-0450_LatLon0.15_PT222H.grib2 2026-04-30 04:43 1.3M
20260430T00Z_MSC_GDPS_SpecificHumidity_IsbL-0500_LatLon0.15_PT222H.grib2 2026-04-30 04:43 1.5M
20260430T00Z_MSC_GDPS_SpecificHumidity_IsbL-0550_LatLon0.15_PT222H.grib2 2026-04-30 04:43 1.6M
20260430T00Z_MSC_GDPS_SpecificHumidity_IsbL-0600_LatLon0.15_PT222H.grib2 2026-04-30 04:43 1.4M
20260430T00Z_MSC_GDPS_SpecificHumidity_IsbL-0650_LatLon0.15_PT222H.grib2 2026-04-30 04:43 1.5M
20260430T00Z_MSC_GDPS_SpecificHumidity_IsbL-0700_LatLon0.15_PT222H.grib2 2026-04-30 04:43 1.6M
20260430T00Z_MSC_GDPS_SpecificHumidity_IsbL-0750_LatLon0.15_PT222H.grib2 2026-04-30 04:43 1.7M
20260430T00Z_MSC_GDPS_SpecificHumidity_IsbL-0800_LatLon0.15_PT222H.grib2 2026-04-30 04:43 1.9M
20260430T00Z_MSC_GDPS_SpecificHumidity_IsbL-0850_LatLon0.15_PT222H.grib2 2026-04-30 04:43 2.0M
20260430T00Z_MSC_GDPS_SpecificHumidity_IsbL-0875_LatLon0.15_PT222H.grib2 2026-04-30 04:43 2.0M
20260430T00Z_MSC_GDPS_SpecificHumidity_IsbL-0900_LatLon0.15_PT222H.grib2 2026-04-30 04:43 1.6M
20260430T00Z_MSC_GDPS_SpecificHumidity_IsbL-0925_LatLon0.15_PT222H.grib2 2026-04-30 04:43 1.6M
20260430T00Z_MSC_GDPS_SpecificHumidity_IsbL-0950_LatLon0.15_PT222H.grib2 2026-04-30 04:43 1.6M
20260430T00Z_MSC_GDPS_SpecificHumidity_IsbL-0970_LatLon0.15_PT222H.grib2 2026-04-30 04:43 1.5M
20260430T00Z_MSC_GDPS_SpecificHumidity_IsbL-0985_LatLon0.15_PT222H.grib2 2026-04-30 04:43 1.5M
20260430T00Z_MSC_GDPS_SpecificHumidity_IsbL-1000_LatLon0.15_PT222H.grib2 2026-04-30 04:43 1.5M
20260430T00Z_MSC_GDPS_SpecificHumidity_IsbL-1015_LatLon0.15_PT222H.grib2 2026-04-30 04:43 1.5M
20260430T00Z_MSC_GDPS_SpecificHumidity_Sfc_LatLon0.15_PT222H.grib2 2026-04-30 04:43 680K
20260430T00Z_MSC_GDPS_Thickness_IsbL-0850to0700_LatLon0.15_PT222H.grib2 2026-04-30 04:43 465K
20260430T00Z_MSC_GDPS_Thickness_IsbL-1000to0500_LatLon0.15_PT222H.grib2 2026-04-30 04:43 370K
20260430T00Z_MSC_GDPS_Thickness_IsbL-1000to0850_LatLon0.15_PT222H.grib2 2026-04-30 04:43 487K
20260430T00Z_MSC_GDPS_TotalCloudCover_Sfc_LatLon0.15_PT222H.grib2 2026-04-30 04:43 834K
20260430T00Z_MSC_GDPS_TotalTotalsIndex_Sfc_LatLon0.15_PT222H.grib2 2026-04-30 04:43 6.2M
20260430T00Z_MSC_GDPS_UVIndex-ClearSky_Sfc_LatLon0.15_PT222H.grib2 2026-04-30 04:51 1.1M
20260430T00Z_MSC_GDPS_UVIndex_Sfc_LatLon0.15_PT222H.grib2 2026-04-30 04:51 1.5M
20260430T00Z_MSC_GDPS_UpwardLongwaveRadiationFlux_NTAtm_LatLon0.15_PT222H.grib2 2026-04-30 04:43 831K
20260430T00Z_MSC_GDPS_VerticalVelocity_IsbL-0200_LatLon0.15_PT222H.grib2 2026-04-30 04:43 1.2M
20260430T00Z_MSC_GDPS_VerticalVelocity_IsbL-0250_LatLon0.15_PT222H.grib2 2026-04-30 04:43 1.0M
20260430T00Z_MSC_GDPS_VerticalVelocity_IsbL-0500_LatLon0.15_PT222H.grib2 2026-04-30 04:43 1.2M
20260430T00Z_MSC_GDPS_VerticalVelocity_IsbL-0600_LatLon0.15_PT222H.grib2 2026-04-30 04:43 1.3M
20260430T00Z_MSC_GDPS_VerticalVelocity_IsbL-0700_LatLon0.15_PT222H.grib2 2026-04-30 04:43 1.4M
20260430T00Z_MSC_GDPS_VerticalVelocity_IsbL-0850_LatLon0.15_PT222H.grib2 2026-04-30 04:43 1.6M
20260430T00Z_MSC_GDPS_WindChill_Sfc_LatLon0.15_PT222H.grib2 2026-04-30 04:43 5.3M
20260430T00Z_MSC_GDPS_WindDir_AGL-10m_LatLon0.15_PT222H.grib2 2026-04-30 04:43 1.3M
20260430T00Z_MSC_GDPS_WindDir_AGL-120m_LatLon0.15_PT222H.grib2 2026-04-30 04:43 1.3M
20260430T00Z_MSC_GDPS_WindDir_AGL-40m_LatLon0.15_PT222H.grib2 2026-04-30 04:43 1.4M
20260430T00Z_MSC_GDPS_WindDir_AGL-80m_LatLon0.15_PT222H.grib2 2026-04-30 04:43 1.3M
20260430T00Z_MSC_GDPS_WindDir_IsbL-0001_LatLon0.15_PT222H.grib2 2026-04-30 04:43 665K
20260430T00Z_MSC_GDPS_WindDir_IsbL-0005_LatLon0.15_PT222H.grib2 2026-04-30 04:43 797K
20260430T00Z_MSC_GDPS_WindDir_IsbL-0010_LatLon0.15_PT222H.grib2 2026-04-30 04:43 845K
20260430T00Z_MSC_GDPS_WindDir_IsbL-0020_LatLon0.15_PT222H.grib2 2026-04-30 04:43 937K
20260430T00Z_MSC_GDPS_WindDir_IsbL-0030_LatLon0.15_PT222H.grib2 2026-04-30 04:43 938K
20260430T00Z_MSC_GDPS_WindDir_IsbL-0050_LatLon0.15_PT222H.grib2 2026-04-30 04:43 948K
20260430T00Z_MSC_GDPS_WindDir_IsbL-0100_LatLon0.15_PT222H.grib2 2026-04-30 04:43 1.0M
20260430T00Z_MSC_GDPS_WindDir_IsbL-0150_LatLon0.15_PT222H.grib2 2026-04-30 04:43 1.0M
20260430T00Z_MSC_GDPS_WindDir_IsbL-0175_LatLon0.15_PT222H.grib2 2026-04-30 04:43 1.0M
20260430T00Z_MSC_GDPS_WindDir_IsbL-0200_LatLon0.15_PT222H.grib2 2026-04-30 04:43 1.1M
20260430T00Z_MSC_GDPS_WindDir_IsbL-0225_LatLon0.15_PT222H.grib2 2026-04-30 04:43 1.1M
20260430T00Z_MSC_GDPS_WindDir_IsbL-0250_LatLon0.15_PT222H.grib2 2026-04-30 04:43 1.1M
20260430T00Z_MSC_GDPS_WindDir_IsbL-0275_LatLon0.15_PT222H.grib2 2026-04-30 04:43 1.2M
20260430T00Z_MSC_GDPS_WindDir_IsbL-0300_LatLon0.15_PT222H.grib2 2026-04-30 04:43 1.2M
20260430T00Z_MSC_GDPS_WindDir_IsbL-0350_LatLon0.15_PT222H.grib2 2026-04-30 04:43 1.2M
20260430T00Z_MSC_GDPS_WindDir_IsbL-0400_LatLon0.15_PT222H.grib2 2026-04-30 04:43 1.3M
20260430T00Z_MSC_GDPS_WindDir_IsbL-0450_LatLon0.15_PT222H.grib2 2026-04-30 04:43 1.3M
20260430T00Z_MSC_GDPS_WindDir_IsbL-0500_LatLon0.15_PT222H.grib2 2026-04-30 04:43 1.3M
20260430T00Z_MSC_GDPS_WindDir_IsbL-0550_LatLon0.15_PT222H.grib2 2026-04-30 04:43 1.4M
20260430T00Z_MSC_GDPS_WindDir_IsbL-0600_LatLon0.15_PT222H.grib2 2026-04-30 04:43 1.4M
20260430T00Z_MSC_GDPS_WindDir_IsbL-0650_LatLon0.15_PT222H.grib2 2026-04-30 04:43 1.5M
20260430T00Z_MSC_GDPS_WindDir_IsbL-0700_LatLon0.15_PT222H.grib2 2026-04-30 04:43 1.6M
20260430T00Z_MSC_GDPS_WindDir_IsbL-0750_LatLon0.15_PT222H.grib2 2026-04-30 04:43 1.7M
20260430T00Z_MSC_GDPS_WindDir_IsbL-0800_LatLon0.15_PT222H.grib2 2026-04-30 04:43 1.8M
20260430T00Z_MSC_GDPS_WindDir_IsbL-0850_LatLon0.15_PT222H.grib2 2026-04-30 04:43 1.9M
20260430T00Z_MSC_GDPS_WindDir_IsbL-0875_LatLon0.15_PT222H.grib2 2026-04-30 04:43 1.9M
20260430T00Z_MSC_GDPS_WindDir_IsbL-0900_LatLon0.15_PT222H.grib2 2026-04-30 04:43 1.9M
20260430T00Z_MSC_GDPS_WindDir_IsbL-0925_LatLon0.15_PT222H.grib2 2026-04-30 04:43 1.9M
20260430T00Z_MSC_GDPS_WindDir_IsbL-0950_LatLon0.15_PT222H.grib2 2026-04-30 04:43 1.9M
20260430T00Z_MSC_GDPS_WindDir_IsbL-0970_LatLon0.15_PT222H.grib2 2026-04-30 04:43 2.0M
20260430T00Z_MSC_GDPS_WindDir_IsbL-0985_LatLon0.15_PT222H.grib2 2026-04-30 04:43 2.0M
20260430T00Z_MSC_GDPS_WindDir_IsbL-1000_LatLon0.15_PT222H.grib2 2026-04-30 04:43 2.0M
20260430T00Z_MSC_GDPS_WindDir_IsbL-1015_LatLon0.15_PT222H.grib2 2026-04-30 04:43 2.0M
20260430T00Z_MSC_GDPS_WindGust-Max_AGL-10m_LatLon0.15_PT222H.grib2 2026-04-30 04:43 2.2M
20260430T00Z_MSC_GDPS_WindGust-Min_AGL-10m_LatLon0.15_PT222H.grib2 2026-04-30 04:43 2.1M
20260430T00Z_MSC_GDPS_WindGust_AGL-10m_LatLon0.15_PT222H.grib2 2026-04-30 04:43 2.1M
20260430T00Z_MSC_GDPS_WindSpeed_AGL-10m_LatLon0.15_PT222H.grib2 2026-04-30 04:43 1.1M
20260430T00Z_MSC_GDPS_WindSpeed_AGL-120m_LatLon0.15_PT222H.grib2 2026-04-30 04:43 1.2M
20260430T00Z_MSC_GDPS_WindSpeed_AGL-40m_LatLon0.15_PT222H.grib2 2026-04-30 04:43 1.2M
20260430T00Z_MSC_GDPS_WindSpeed_AGL-80m_LatLon0.15_PT222H.grib2 2026-04-30 04:43 1.2M
20260430T00Z_MSC_GDPS_WindSpeed_IsbL-0001_LatLon0.15_PT222H.grib2 2026-04-30 04:43 646K
20260430T00Z_MSC_GDPS_WindSpeed_IsbL-0005_LatLon0.15_PT222H.grib2 2026-04-30 04:43 681K
20260430T00Z_MSC_GDPS_WindSpeed_IsbL-0010_LatLon0.15_PT222H.grib2 2026-04-30 04:43 614K
20260430T00Z_MSC_GDPS_WindSpeed_IsbL-0020_LatLon0.15_PT222H.grib2 2026-04-30 04:43 648K
20260430T00Z_MSC_GDPS_WindSpeed_IsbL-0030_LatLon0.15_PT222H.grib2 2026-04-30 04:43 843K
20260430T00Z_MSC_GDPS_WindSpeed_IsbL-0050_LatLon0.15_PT222H.grib2 2026-04-30 04:43 880K
20260430T00Z_MSC_GDPS_WindSpeed_IsbL-0100_LatLon0.15_PT222H.grib2 2026-04-30 04:43 1.1M
20260430T00Z_MSC_GDPS_WindSpeed_IsbL-0150_LatLon0.15_PT222H.grib2 2026-04-30 04:43 927K
20260430T00Z_MSC_GDPS_WindSpeed_IsbL-0175_LatLon0.15_PT222H.grib2 2026-04-30 04:43 1.0M
20260430T00Z_MSC_GDPS_WindSpeed_IsbL-0200_LatLon0.15_PT222H.grib2 2026-04-30 04:43 1.0M
20260430T00Z_MSC_GDPS_WindSpeed_IsbL-0225_LatLon0.15_PT222H.grib2 2026-04-30 04:43 1.1M
20260430T00Z_MSC_GDPS_WindSpeed_IsbL-0250_LatLon0.15_PT222H.grib2 2026-04-30 04:43 1.1M
20260430T00Z_MSC_GDPS_WindSpeed_IsbL-0275_LatLon0.15_PT222H.grib2 2026-04-30 04:43 1.1M
20260430T00Z_MSC_GDPS_WindSpeed_IsbL-0300_LatLon0.15_PT222H.grib2 2026-04-30 04:43 1.1M
20260430T00Z_MSC_GDPS_WindSpeed_IsbL-0350_LatLon0.15_PT222H.grib2 2026-04-30 04:43 1.1M
20260430T00Z_MSC_GDPS_WindSpeed_IsbL-0400_LatLon0.15_PT222H.grib2 2026-04-30 04:43 1.1M
20260430T00Z_MSC_GDPS_WindSpeed_IsbL-0450_LatLon0.15_PT222H.grib2 2026-04-30 04:43 1.1M
20260430T00Z_MSC_GDPS_WindSpeed_IsbL-0500_LatLon0.15_PT222H.grib2 2026-04-30 04:43 1.1M
20260430T00Z_MSC_GDPS_WindSpeed_IsbL-0550_LatLon0.15_PT222H.grib2 2026-04-30 04:43 1.1M
20260430T00Z_MSC_GDPS_WindSpeed_IsbL-0600_LatLon0.15_PT222H.grib2 2026-04-30 04:43 1.4M
20260430T00Z_MSC_GDPS_WindSpeed_IsbL-0650_LatLon0.15_PT222H.grib2 2026-04-30 04:43 1.4M
20260430T00Z_MSC_GDPS_WindSpeed_IsbL-0700_LatLon0.15_PT222H.grib2 2026-04-30 04:43 1.5M
20260430T00Z_MSC_GDPS_WindSpeed_IsbL-0750_LatLon0.15_PT222H.grib2 2026-04-30 04:43 1.5M
20260430T00Z_MSC_GDPS_WindSpeed_IsbL-0800_LatLon0.15_PT222H.grib2 2026-04-30 04:43 1.6M
20260430T00Z_MSC_GDPS_WindSpeed_IsbL-0850_LatLon0.15_PT222H.grib2 2026-04-30 04:43 1.7M
20260430T00Z_MSC_GDPS_WindSpeed_IsbL-0875_LatLon0.15_PT222H.grib2 2026-04-30 04:43 1.8M
20260430T00Z_MSC_GDPS_WindSpeed_IsbL-0900_LatLon0.15_PT222H.grib2 2026-04-30 04:43 1.8M
20260430T00Z_MSC_GDPS_WindSpeed_IsbL-0925_LatLon0.15_PT222H.grib2 2026-04-30 04:43 1.8M
20260430T00Z_MSC_GDPS_WindSpeed_IsbL-0950_LatLon0.15_PT222H.grib2 2026-04-30 04:43 1.9M
20260430T00Z_MSC_GDPS_WindSpeed_IsbL-0970_LatLon0.15_PT222H.grib2 2026-04-30 04:43 1.9M
20260430T00Z_MSC_GDPS_WindSpeed_IsbL-0985_LatLon0.15_PT222H.grib2 2026-04-30 04:43 1.8M
20260430T00Z_MSC_GDPS_WindSpeed_IsbL-1000_LatLon0.15_PT222H.grib2 2026-04-30 04:43 1.8M
20260430T00Z_MSC_GDPS_WindSpeed_IsbL-1015_LatLon0.15_PT222H.grib2 2026-04-30 04:43 1.8M
20260430T00Z_MSC_GDPS_WindU_AGL-10m_LatLon0.15_PT222H.grib2 2026-04-30 04:43 1.3M
20260430T00Z_MSC_GDPS_WindU_AGL-120m_LatLon0.15_PT222H.grib2 2026-04-30 04:43 1.0M
20260430T00Z_MSC_GDPS_WindU_AGL-40m_LatLon0.15_PT222H.grib2 2026-04-30 04:43 952K
20260430T00Z_MSC_GDPS_WindU_AGL-80m_LatLon0.15_PT222H.grib2 2026-04-30 04:43 957K
20260430T00Z_MSC_GDPS_WindU_IsbL-0001_LatLon0.15_PT222H.grib2 2026-04-30 04:43 500K
20260430T00Z_MSC_GDPS_WindU_IsbL-0005_LatLon0.15_PT222H.grib2 2026-04-30 04:43 678K
20260430T00Z_MSC_GDPS_WindU_IsbL-0010_LatLon0.15_PT222H.grib2 2026-04-30 04:43 687K
20260430T00Z_MSC_GDPS_WindU_IsbL-0020_LatLon0.15_PT222H.grib2 2026-04-30 04:43 715K
20260430T00Z_MSC_GDPS_WindU_IsbL-0030_LatLon0.15_PT222H.grib2 2026-04-30 04:43 724K
20260430T00Z_MSC_GDPS_WindU_IsbL-0050_LatLon0.15_PT222H.grib2 2026-04-30 04:43 680K
20260430T00Z_MSC_GDPS_WindU_IsbL-0100_LatLon0.15_PT222H.grib2 2026-04-30 04:43 851K
20260430T00Z_MSC_GDPS_WindU_IsbL-0150_LatLon0.15_PT222H.grib2 2026-04-30 04:43 1.0M
20260430T00Z_MSC_GDPS_WindU_IsbL-0175_LatLon0.15_PT222H.grib2 2026-04-30 04:43 1.0M
20260430T00Z_MSC_GDPS_WindU_IsbL-0200_LatLon0.15_PT222H.grib2 2026-04-30 04:43 834K
20260430T00Z_MSC_GDPS_WindU_IsbL-0225_LatLon0.15_PT222H.grib2 2026-04-30 04:43 846K
20260430T00Z_MSC_GDPS_WindU_IsbL-0250_LatLon0.15_PT222H.grib2 2026-04-30 04:43 849K
20260430T00Z_MSC_GDPS_WindU_IsbL-0275_LatLon0.15_PT222H.grib2 2026-04-30 04:43 878K
20260430T00Z_MSC_GDPS_WindU_IsbL-0300_LatLon0.15_PT222H.grib2 2026-04-30 04:43 870K
20260430T00Z_MSC_GDPS_WindU_IsbL-0350_LatLon0.15_PT222H.grib2 2026-04-30 04:43 888K
20260430T00Z_MSC_GDPS_WindU_IsbL-0400_LatLon0.15_PT222H.grib2 2026-04-30 04:43 892K
20260430T00Z_MSC_GDPS_WindU_IsbL-0450_LatLon0.15_PT222H.grib2 2026-04-30 04:43 1.1M
20260430T00Z_MSC_GDPS_WindU_IsbL-0500_LatLon0.15_PT222H.grib2 2026-04-30 04:43 1.1M
20260430T00Z_MSC_GDPS_WindU_IsbL-0550_LatLon0.15_PT222H.grib2 2026-04-30 04:43 1.1M
20260430T00Z_MSC_GDPS_WindU_IsbL-0600_LatLon0.15_PT222H.grib2 2026-04-30 04:43 1.1M
20260430T00Z_MSC_GDPS_WindU_IsbL-0650_LatLon0.15_PT222H.grib2 2026-04-30 04:43 1.1M
20260430T00Z_MSC_GDPS_WindU_IsbL-0700_LatLon0.15_PT222H.grib2 2026-04-30 04:43 1.2M
20260430T00Z_MSC_GDPS_WindU_IsbL-0750_LatLon0.15_PT222H.grib2 2026-04-30 04:43 1.3M
20260430T00Z_MSC_GDPS_WindU_IsbL-0800_LatLon0.15_PT222H.grib2 2026-04-30 04:43 1.3M
20260430T00Z_MSC_GDPS_WindU_IsbL-0850_LatLon0.15_PT222H.grib2 2026-04-30 04:43 1.4M
20260430T00Z_MSC_GDPS_WindU_IsbL-0875_LatLon0.15_PT222H.grib2 2026-04-30 04:43 1.4M
20260430T00Z_MSC_GDPS_WindU_IsbL-0900_LatLon0.15_PT222H.grib2 2026-04-30 04:43 1.4M
20260430T00Z_MSC_GDPS_WindU_IsbL-0925_LatLon0.15_PT222H.grib2 2026-04-30 04:43 1.4M
20260430T00Z_MSC_GDPS_WindU_IsbL-0950_LatLon0.15_PT222H.grib2 2026-04-30 04:43 1.4M
20260430T00Z_MSC_GDPS_WindU_IsbL-0970_LatLon0.15_PT222H.grib2 2026-04-30 04:43 1.4M
20260430T00Z_MSC_GDPS_WindU_IsbL-0985_LatLon0.15_PT222H.grib2 2026-04-30 04:43 1.4M
20260430T00Z_MSC_GDPS_WindU_IsbL-1000_LatLon0.15_PT222H.grib2 2026-04-30 04:43 1.4M
20260430T00Z_MSC_GDPS_WindU_IsbL-1015_LatLon0.15_PT222H.grib2 2026-04-30 04:43 1.3M
20260430T00Z_MSC_GDPS_WindV_AGL-10m_LatLon0.15_PT222H.grib2 2026-04-30 04:43 1.3M
20260430T00Z_MSC_GDPS_WindV_AGL-120m_LatLon0.15_PT222H.grib2 2026-04-30 04:43 1.0M
20260430T00Z_MSC_GDPS_WindV_AGL-40m_LatLon0.15_PT222H.grib2 2026-04-30 04:43 956K
20260430T00Z_MSC_GDPS_WindV_AGL-80m_LatLon0.15_PT222H.grib2 2026-04-30 04:43 1.0M
20260430T00Z_MSC_GDPS_WindV_IsbL-0001_LatLon0.15_PT222H.grib2 2026-04-30 04:43 714K
20260430T00Z_MSC_GDPS_WindV_IsbL-0005_LatLon0.15_PT222H.grib2 2026-04-30 04:43 845K
20260430T00Z_MSC_GDPS_WindV_IsbL-0010_LatLon0.15_PT222H.grib2 2026-04-30 04:43 869K
20260430T00Z_MSC_GDPS_WindV_IsbL-0020_LatLon0.15_PT222H.grib2 2026-04-30 04:43 829K
20260430T00Z_MSC_GDPS_WindV_IsbL-0030_LatLon0.15_PT222H.grib2 2026-04-30 04:43 835K
20260430T00Z_MSC_GDPS_WindV_IsbL-0050_LatLon0.15_PT222H.grib2 2026-04-30 04:43 967K
20260430T00Z_MSC_GDPS_WindV_IsbL-0100_LatLon0.15_PT222H.grib2 2026-04-30 04:43 1.0M
20260430T00Z_MSC_GDPS_WindV_IsbL-0150_LatLon0.15_PT222H.grib2 2026-04-30 04:43 1.0M
20260430T00Z_MSC_GDPS_WindV_IsbL-0175_LatLon0.15_PT222H.grib2 2026-04-30 04:43 1.0M
20260430T00Z_MSC_GDPS_WindV_IsbL-0200_LatLon0.15_PT222H.grib2 2026-04-30 04:43 833K
20260430T00Z_MSC_GDPS_WindV_IsbL-0225_LatLon0.15_PT222H.grib2 2026-04-30 04:43 842K
20260430T00Z_MSC_GDPS_WindV_IsbL-0250_LatLon0.15_PT222H.grib2 2026-04-30 04:43 845K
20260430T00Z_MSC_GDPS_WindV_IsbL-0275_LatLon0.15_PT222H.grib2 2026-04-30 04:43 872K
20260430T00Z_MSC_GDPS_WindV_IsbL-0300_LatLon0.15_PT222H.grib2 2026-04-30 04:43 863K
20260430T00Z_MSC_GDPS_WindV_IsbL-0350_LatLon0.15_PT222H.grib2 2026-04-30 04:43 880K
20260430T00Z_MSC_GDPS_WindV_IsbL-0400_LatLon0.15_PT222H.grib2 2026-04-30 04:43 883K
20260430T00Z_MSC_GDPS_WindV_IsbL-0450_LatLon0.15_PT222H.grib2 2026-04-30 04:43 1.1M
20260430T00Z_MSC_GDPS_WindV_IsbL-0500_LatLon0.15_PT222H.grib2 2026-04-30 04:43 1.1M
20260430T00Z_MSC_GDPS_WindV_IsbL-0550_LatLon0.15_PT222H.grib2 2026-04-30 04:43 1.1M
20260430T00Z_MSC_GDPS_WindV_IsbL-0600_LatLon0.15_PT222H.grib2 2026-04-30 04:43 1.1M
20260430T00Z_MSC_GDPS_WindV_IsbL-0650_LatLon0.15_PT222H.grib2 2026-04-30 04:43 1.2M
20260430T00Z_MSC_GDPS_WindV_IsbL-0700_LatLon0.15_PT222H.grib2 2026-04-30 04:43 1.2M
20260430T00Z_MSC_GDPS_WindV_IsbL-0750_LatLon0.15_PT222H.grib2 2026-04-30 04:43 1.3M
20260430T00Z_MSC_GDPS_WindV_IsbL-0800_LatLon0.15_PT222H.grib2 2026-04-30 04:43 1.3M
20260430T00Z_MSC_GDPS_WindV_IsbL-0850_LatLon0.15_PT222H.grib2 2026-04-30 04:43 1.4M
20260430T00Z_MSC_GDPS_WindV_IsbL-0875_LatLon0.15_PT222H.grib2 2026-04-30 04:43 1.4M
20260430T00Z_MSC_GDPS_WindV_IsbL-0900_LatLon0.15_PT222H.grib2 2026-04-30 04:43 1.4M
20260430T00Z_MSC_GDPS_WindV_IsbL-0925_LatLon0.15_PT222H.grib2 2026-04-30 04:43 1.4M
20260430T00Z_MSC_GDPS_WindV_IsbL-0950_LatLon0.15_PT222H.grib2 2026-04-30 04:43 1.4M
20260430T00Z_MSC_GDPS_WindV_IsbL-0970_LatLon0.15_PT222H.grib2 2026-04-30 04:43 1.4M
20260430T00Z_MSC_GDPS_WindV_IsbL-0985_LatLon0.15_PT222H.grib2 2026-04-30 04:43 1.4M
20260430T00Z_MSC_GDPS_WindV_IsbL-1000_LatLon0.15_PT222H.grib2 2026-04-30 04:43 1.4M
20260430T00Z_MSC_GDPS_WindV_IsbL-1015_LatLon0.15_PT222H.grib2 2026-04-30 04:43 1.3M